Regional Weather Roundup
Issued by NWS Lake Charles, LA

Home | Current Version | Previous Version | Text Only | Print | Product List | Glossary On
Versions: 1 2 3 4 5 6 7 8 9 10 11 12 13 14 15 16 17 18 19 20 21 22 23 24 25 26 27 28 29 30 31 32 33 34 35 36 37 38 39 40 41 42 43 44 45 46 47 48 49 50
000
ASUS44 KLCH 061010
RWRLCH
REGIONAL WEATHER ROUNDUP
NATIONAL WEATHER SERVICE LAKE CHARLES LA
400 AM CST TUE DEC 06 2016

Note: "fair" indicates few or no clouds below 12,000 feet with no
significant weather and/or obstructions to visibility.


ACROSS SOUTHEAST TEXAS

CITY           SKY/WX    TMP DP  RH WIND       PRES   REMARKS
BEAUMONT       PTCLDY    51  49  92 CALM      29.83F
BEAUMONT CITY  PTSUNNY   53  51  93 W6        29.84S
ORANGE         CLOUDY   N/A N/A N/A W3        29.86R
JASPER         CLOUDY    52  51  95 W7        29.84R
$$

ACROSS CENTRAL LOUISIANA

CITY           SKY/WX    TMP DP  RH WIND       PRES   REMARKS
LEESVILLE      CLOUDY    50  50 100 W9        29.80R
FULLERTON      CLOUDY    50  49  96 CALM      29.76R
ALEXANDRIA INT CLOUDY    51  48  89 W8        29.77S
ESLER FIELD    CLOUDY    51  50  96 W12       29.79R
DERIDDER       CLOUDY    51  50  95 SW7       29.82S
OAKDALE        CLOUDY    52  49  89 CALM      29.81F
OPELOUSAS      CLOUDY    51  50  97 W8        29.82S
$$

ACROSS SOUTHWEST AND SOUTH CENTRAL LOUISIANA

CITY           SKY/WX    TMP DP  RH WIND       PRES   REMARKS
SULPHUR        CLOUDY    54  50  87 W6        29.84S
LAKE CHARLES   CLOUDY    53  49  86 W8G17     29.83S
CHENNAULT INT  CLOUDY    52  49  89 W9        29.83F
CAMERON PHI      N/A     54  52  94 NW10      29.83S
DEQUINCY       CLOUDY    51  50  96 CALM      29.83S
JENNINGS       CLOUDY    52  48  87 W9        29.83F
LAFAYETTE      CLOUDY    54  51  90 W10       29.83R
NEW IBERIA     LGT RAIN  53  50  89 W13G21    29.84R
ABBEVILLE      CLOUDY    54  52  94 W12G20    29.84R
PATTERSON      CLOUDY   N/A N/A N/A W16G23    29.83R
SALT POINT     NOT AVBL
$$

SELECTED SITES ACROSS THE REGION

CITY           SKY/WX    TMP DP  RH WIND       PRES   REMARKS
HOUSTON BUSH   PTCLDY    50  49  96 CALM      29.83F
HOUSTON HOBBY  MOCLDY    51  50  96 SW6       29.84S
GALVESTON      CLEAR     53  51  93 W6        29.85F
COLLEGE STAT   PTCLDY    49  49 100 S6        29.80S
CONROE         CLOUDY    51  50  96 SW3       29.83R
HUNTSVILLE     CLOUDY    51  49  92 S7        29.81S
LUFKIN         CLOUDY    50  49  96 SW6       29.80R
SHREVEPORT     CLOUDY    50  49  96 W6        29.77S
MONROE         CLOUDY    49  47  93 W12       29.77R
NATCHEZ MS     CLOUDY    50  46  87 W14G20    29.78R
BATON ROUGE    CLOUDY    55  54  96 SW15      29.80R
N.O. INTL ARPT MOCLDY    58  56  93 W20G25    29.79R
SLIDELL        MOCLDY    59  55  87 VRB7G18   29.76R
$$

MARINE REPORTS

STATION/POSITION TIME  SKY/WX   TEMP    WIND        PRES    VSBY
                                AIR SEA DIR/SP/G
                 (UTC)          (F)     (DEG/KT/KT) (MB)    (MI)
BUOY 30 S HIGH I 0950            58 66  280/ 14/ 17 1010.7R
WVE H/P(F/S)=  3/ 6

SEA RIM ST PARK  1000            51     250/  4/  5 1011.2F
PORT ARTHUR      0948               57  280/  8/ 11 1010.5F
SABINE PASS N    0936            52 59  290/  3/  5 1011.6F
TEXAS POINT      NOT AVBL
CALCASIEU PASS   0936            53 59  300/  9/ 13   N/A
LK CHARLES BEACH 0936            53 58              1010.3F
MARSH ISLAND     0900                                 N/A
FRESH WATER LOCK 0936            52 60  260/ 13/ 19 1011.2R
AMERADA PASS     0936            59 62  270/ 12/ 17 1009.5R
$$



USA.gov is the U.S. government's official web portal to all federal, state and local government web resources and services.